BEIDOU-3 M23

Last updated on Nov. 24, 2019, 4:21 a.m. UTC

1 44542U 19061A   19327.33818402 -.00000048  00000-0  10000-3 0  9994
2 44542  54.9859 264.0308 0009327 311.0361 128.7781  1.86231813  1132
UTC
Height (km)
Latitude
Longitude
Inclination
Orbital Period
UTC large
Height (km)
Speed (km/s)
/
Latitude / Longitude
Inclination (degrees)
Orbital Period (minutes)
Azimuth
Elevation
Range (km)
Doppler Factor
iOS Compass Heading
iOS Angle

Next 30 passes for location: Hong Kong

Rise time Rise Azimuth (degrees) Set time Set Azimuth (degrees) Duration Max altitude (degrees)

No matching passes for this satellites